[[{"header":{"parameterUnit":"m.s-1","parameterCategory":1,"la1":30.2991,"la2":30.254,"lo1":-89.0895,"lo2":-89.0444,"dy":0.0017,"dx":0.0017,"nx":28,"ny":28,"refTime":"2025-08-29T09:00:00:Z","depth":0,"parameterNumber":2,"parameterNumberName":"U-component_of_WINDS"},"data":[0,0,0,0,0,0,0,0,0,0,0,0,0,0,0,0,0,0,0,0,0,0,0,0,0,0,0,0,0,0,0,0,0,0,0,0,0,0,0,0,0,0,0,0,0,0,0,0,0,0,0,0,0,0,0,0,0,0,-0.7449,-0.7453,0,-0.7879,-0.7884,-0.7889,-0.8175,-0.8177,-0.8179,-0.8181,-0.8627,-0.8636,-0.8646,0,0,0,0,0,0,0,0,0,0,0,0,0,-0.6882,-0.6891,-0.7448,-0.7454,-0.7459,-0.7878,-0.7884,-0.789,-0.8175,-0.8177,-0.818,-0.8182,-0.8623,-0.8635,-0.8647,0,0,0,0,0,0,0,0,0,0,0,0,0,-0.7201,-0.6894,-0.7448,-0.7652,-0.7674,-0.7877,-0.7884,-0.7892,-0.8174,-0.8177,-0.818,-0.8183,-0.8619,-0.8634,-0.8649,-0.8684,0,0,-0.8695,-0.8701,0,0,0,0,0,0,0,0,-0.7183,-0.7222,-0.7616,-0.7638,-0.7664,-0.7976,-0.7848,-0.8157,-0.8174,-0.7985,-0.8181,-0.8184,-0.8408,-0.8441,-0.8515,-0.8705,-0.8724,-0.8696,-0.8705,-0.8712,-0.8716,0,0,0,0,0,0,0,-0.716,-0.7205,-0.7619,-0.7622,-0.7651,-0.7725,-0.7773,-0.7908,-0.8175,-0.8001,-0.8023,-0.807,-0.8422,-0.85,-0.8528,-0.873,-0.8696,-0.8709,-0.8719,-0.8724,-0.8974,-0.8971,0,0,0,0,0,0,-0.7105,-0.7185,-0.7606,-0.7632,-0.7425,-0.7732,-0.7787,-0.7873,-0.8174,-0.8223,-0.8067,-0.8082,-0.8473,-0.851,-0.8545,-0.8607,-0.8712,-0.8726,-0.8735,-0.8976,-0.8973,-0.8971,0,0,0,0,0,0,-0.7092,-0.714,-0.7588,-0.7415,-0.7477,-0.7739,-0.7834,-0.788,-0.7959,-0.8224,-0.8274,-0.8097,-0.8477,-0.8523,-0.8648,-0.8626,-0.8733,-0.8746,-0.8979,-0.8975,-0.8972,-0.8729,0,0,0,0,0,0,-0.7074,-0.7133,-0.7147,-0.7413,-0.7485,-0.768,-0.7832,-0.7886,-0.7983,-0.8007,-0.8265,-0.8311,-0.8482,-0.8623,-0.8662,-0.8649,-0.8758,-0.8982,-0.8977,-0.8973,-0.8741,-0.8718,-0.8699,0,0,0,0,0,-0.7053,-0.7062,-0.7146,-0.7195,-0.7508,-0.7678,-0.7721,-0.7916,-0.798,-0.7998,-0.8169,-0.8303,-0.8622,-0.8634,-0.868,-0.8671,-0.8984,-0.8979,-0.8973,-0.875,-0.8722,-0.8699,0,0,0,0,0,0,-0.6789,-0.7101,-0.7197,-0.7292,-0.7456,-0.7726,-0.7754,-0.788,-0.8031,-0.8046,-0.8284,-0.8341,-0.844,-0.8569,-0.8576,-0.8722,-0.882,-0.8823,-0.8634,-0.861,-0.8589,-0.8556,-0.8771,0,0,0,0,0,-0.6741,-0.6852,-0.712,-0.7178,-0.7255,-0.7489,-0.7571,-0.7708,-0.7888,-0.796,-0.814,-0.8311,-0.8452,-0.8539,-0.8682,-0.8762,-0.8823,-0.8779,-0.8757,-0.8739,-0.8739,-0.8793,-0.8777,-0.8953,-0.8953,-0.8953,0,0,-0.6645,-0.6829,-0.6884,-0.7129,-0.7273,-0.7384,-0.7546,-0.7657,-0.7743,-0.7978,-0.8105,-0.8243,-0.8452,-0.8553,-0.8608,-0.8664,-0.8704,-0.8732,-0.8715,-0.8726,-0.8786,-0.8769,-0.8754,-0.8949,-0.895,-0.895,0,0,-0.6525,-0.6675,-0.6741,-0.6881,-0.7096,-0.7252,-0.7267,-0.752,-0.762,-0.7752,-0.7931,-0.8038,-0.8273,-0.8415,-0.8517,-0.8454,-0.8584,-0.8494,-0.8385,-0.8434,-0.8421,-0.8409,-0.8388,-0.8377,-0.8494,-0.8493,-0.8493,0,-0.6378,-0.6551,-0.6759,-0.6859,-0.6963,-0.718,-0.725,-0.7377,-0.7627,-0.7695,-0.7754,-0.8055,-0.821,-0.8349,-0.8334,-0.841,-0.8437,-0.8465,-0.8405,-0.8396,-0.8389,-0.8371,-0.8362,-0.8481,-0.8482,-0.8484,-0.8485,0,-0.6361,-0.6478,-0.6506,-0.6741,-0.6848,-0.6932,-0.7155,-0.7239,-0.7367,-0.7518,-0.7651,-0.7846,-0.8032,-0.8076,-0.8203,-0.8235,-0.8263,-0.836,-0.8463,-0.8356,-0.8344,-0.8338,-0.8463,-0.8468,-0.8471,-0.8474,0,0,-0.6085,-0.6435,-0.6441,-0.6551,-0.6806,-0.6902,-0.6998,-0.718,-0.7247,-0.7414,-0.7502,-0.7697,-0.779,-0.7906,-0.8051,-0.8094,-0.8034,-0.8189,-0.8197,-0.8152,-0.8082,-0.8006,-0.7994,-0.8122,-0.8121,-0.8121,-0.8065,0,-0.6004,-0.6184,-0.6375,-0.6489,-0.6602,-0.6811,-0.6895,-0.7061,-0.7206,-0.7325,-0.7486,-0.762,-0.7732,-0.7804,-0.7857,-0.8029,-0.8022,-0.8036,-0.8207,-0.8211,-0.8147,-0.7988,-0.7908,-0.7845,-0.8061,-0.8061,-0.806,0,-0.5933,-0.6087,-0.6212,-0.6458,-0.6512,-0.6583,-0.6767,-0.6877,-0.7071,-0.7174,-0.7304,-0.7458,-0.7573,-0.7663,-0.7825,-0.783,-0.7912,-0.8008,-0.8011,-0.8033,-0.8127,-0.8006,-0.783,-0.782,-0.8054,-0.8055,-0.8055,0,-0.5718,-0.5959,-0.6066,-0.6153,-0.6442,-0.6488,-0.6611,-0.6809,-0.6906,-0.7068,-0.7134,-0.7306,-0.7401,-0.7532,-0.773,-0.7777,-0.7872,-0.7978,-0.7962,-0.7956,-0.7971,-0.7967,-0.7804,-0.8024,-0.8024,-0.8024,-0.8024,0,-0.5608,-0.5676,-0.5973,-0.6038,-0.6122,-0.6343,-0.642,-0.6563,-0.6737,-0.6836,-0.7029,-0.7117,-0.7374,-0.7494,-0.7651,-0.7762,-0.7803,-0.7891,-0.7931,-0.7873,-0.7862,-0.7929,-0.7938,-0.8022,-0.8022,-0.8023,-0.8023,0,-0.5382,-0.5584,-0.5713,-0.5977,-0.6045,-0.6094,-0.6322,-0.6395,-0.6551,-0.6673,-0.6715,-0.6961,-0.7113,-0.7324,-0.7541,-0.7647,-0.7736,-0.7801,-0.7669,-0.7693,-0.7665,-0.7664,-0.7539,-0.7535,-0.7754,-0.7752,-0.775,0,-0.5297,-0.5355,-0.5624,-0.5702,-0.5818,-0.5943,-0.6044,-0.6265,-0.6362,-0.6589,-0.6635,-0.6802,-0.6946,-0.718,-0.7379,-0.7547,-0.7618,-0.7563,-0.7644,-0.7584,-0.7618,-0.7611,-0.7619,-0.7542,-0.7538,-0.7536,-0.7533,0,-0.5126,-0.5223,-0.5359,-0.5531,-0.5645,-0.5791,-0.5947,-0.6001,-0.6256,-0.6356,-0.6513,-0.6625,-0.6847,-0.7011,-0.7205,-0.7337,-0.7477,-0.7506,-0.7512,-0.7452,-0.7373,-0.7416,-0.7614,-0.7508,-0.751,-0.7512,-0.7514,-0.7515,-0.497,-0.503,-0.5229,-0.5375,-0.5515,-0.5657,-0.5738,-0.5904,-0.6038,-0.6234,-0.6358,-0.6509,-0.6707,-0.6982,-0.7107,-0.723,-0.7287,-0.7294,-0.7296,-0.7294,-0.7274,-0.7353,-0.7267,-0.7268,-0.7269,-0.727,-0.727,0,-0.4808,-0.4947,-0.5079,-0.529,-0.5405,-0.5527,-0.5706,-0.5795,-0.5925,-0.6096,-0.6234,-0.6415,-0.6576,-0.6788,-0.6964,-0.7022,-0.7092,-0.7061,-0.7059,-0.7087,-0.7213,-0.7191,-0.7002,-0.7002,-0.7002,-0.7002,-0.7002,-0.7002,-0.4738,-0.4848,-0.4968,-0.5151,-0.5292,-0.5439,-0.5531,-0.5663,-0.5801,-0.5994,-0.6127,-0.6264,-0.6453,-0.6645,-0.6798,-0.6857,-0.6913,-0.6862,-0.694,-0.7054,-0.7078,-0.7101,-0.7081,-0.6872,-0.6872,-0.6805,-0.6804,-0.6803]},{"header":{"parameterUnit":"m.s-1","parameterCategory":1,"la1":30.2991,"la2":30.254,"lo1":-89.0895,"lo2":-89.0444,"dy":0.0017,"dx":0.0017,"nx":28,"ny":28,"refTime":"2025-08-29T09:00:00:Z","depth":0,"parameterNumber":3,"parameterNumberName":"V-component_of_WINDS"},"data":[0,0,0,0,0,0,0,0,0,0,0,0,0,0,0,0,0,0,0,0,0,0,0,0,0,0,0,0,0,0,0,0,0,0,0,0,0,0,0,0,0,0,0,0,0,0,0,0,0,0,0,0,0,0,0,0,0,0,3.5178,3.5179,0,3.5259,3.526,3.5261,3.5104,3.5099,3.5094,3.5089,3.517,3.5177,3.5184,0,0,0,0,0,0,0,0,0,0,0,0,0,3.4884,3.489,3.5178,3.5179,3.518,3.5259,3.526,3.5261,3.5105,3.5099,3.5093,3.5087,3.5168,3.5176,3.5185,0,0,0,0,0,0,0,0,0,0,0,0,0,3.4993,3.4892,3.5177,3.5111,3.5106,3.5259,3.526,3.5262,3.5107,3.5099,3.5091,3.5084,3.5165,3.5175,3.5186,3.5406,0,0,3.5218,3.5222,0,0,0,0,0,0,0,0,3.4987,3.5004,3.512,3.5116,3.5111,3.5164,3.5186,3.531,3.5109,3.5106,3.5089,3.508,3.5174,3.5183,3.5216,3.541,3.5413,3.5219,3.5225,3.5229,3.5232,0,0,0,0,0,0,0,3.498,3.4999,3.521,3.5122,3.5116,3.5077,3.5084,3.5209,3.5183,3.5106,3.5095,3.5107,3.517,3.5206,3.5216,3.5414,3.5218,3.5228,3.5234,3.5238,3.5792,3.58,0,0,0,0,0,0,3.4981,3.4994,3.5207,3.5212,3.5029,3.5088,3.5096,3.5155,3.5181,3.5178,3.5113,3.5099,3.5192,3.5204,3.5219,3.5477,3.5229,3.5239,3.5245,3.5784,3.5794,3.5803,0,0,0,0,0,0,3.4975,3.5001,3.5204,3.51,3.5123,3.5102,3.5169,3.516,3.5196,3.5187,3.5181,3.5155,3.5186,3.5204,3.536,3.5478,3.5244,3.5253,3.5774,3.5787,3.5799,3.5997,0,0,0,0,0,0,3.4967,3.5,3.5084,3.5103,3.5129,3.5346,3.5176,3.5167,3.5215,3.5197,3.5224,3.5221,3.5182,3.5346,3.5371,3.5488,3.5262,3.5763,3.578,3.5795,3.598,3.6015,3.6045,0,0,0,0,0,3.4957,3.5136,3.5089,3.5115,3.5234,3.5353,3.5367,3.5319,3.5225,3.5308,3.5303,3.522,3.5462,3.5363,3.539,3.5512,3.5756,3.5775,3.5794,3.5965,3.6008,3.6044,0,0,0,0,0,0,3.5129,3.5137,3.5085,3.5276,3.5315,3.5326,3.543,3.5366,3.5431,3.5412,3.5348,3.5356,3.5525,3.5534,3.5424,3.5727,3.5593,3.5618,3.5714,3.5755,3.5787,3.578,3.527,0,0,0,0,0,3.519,3.5287,3.5288,3.5456,3.5478,3.5452,3.5501,3.5461,3.5498,3.5514,3.5519,3.5558,3.5642,3.5699,3.5776,3.5981,3.5984,3.6079,3.6111,3.6138,3.616,3.6269,3.631,3.5866,3.5865,3.5865,0,0,3.5315,3.5331,3.5396,3.5491,3.5516,3.5617,3.5466,3.5579,3.5653,3.553,3.5678,3.5685,3.5724,3.5906,3.5986,3.5918,3.6284,3.6162,3.6184,3.6191,3.6293,3.6335,3.6372,3.5878,3.5876,3.5874,0,0,3.5594,3.5617,3.5759,3.5788,3.5829,3.581,3.5845,3.5867,3.5866,3.6014,3.5925,3.6011,3.6158,3.619,3.6225,3.6519,3.6445,3.6546,3.6715,3.6822,3.6857,3.6887,3.6991,3.7029,3.6568,3.6569,3.6569,0,3.5743,3.5892,3.584,3.5959,3.6003,3.5899,3.6042,3.6073,3.6137,3.617,3.6094,3.6277,3.6296,3.6483,3.6555,3.6588,3.6624,3.6541,3.6856,3.6886,3.6914,3.7012,3.7052,3.658,3.6579,3.6578,3.6577,0,3.6074,3.6179,3.6289,3.6355,3.6412,3.6543,3.6509,3.6573,3.6528,3.6518,3.667,3.6689,3.6769,3.6811,3.6768,3.6993,3.695,3.6867,3.673,3.6969,3.7061,3.7098,3.6597,3.6593,3.659,3.6587,0,0,3.6461,3.6498,3.6539,3.6568,3.6607,3.6686,3.6813,3.6891,3.6947,3.6996,3.7099,3.7227,3.715,3.7191,3.7151,3.7245,3.7476,3.715,3.715,3.7209,3.7724,3.7785,3.783,3.7428,3.7435,3.7441,3.772,0,3.6737,3.6955,3.6912,3.7125,3.7221,3.7125,3.7234,3.727,3.7264,3.7344,3.7337,3.7428,3.7321,3.7344,3.7434,3.7429,3.7578,3.7408,3.7522,3.7527,3.7514,3.7877,3.7942,3.8205,3.7756,3.7762,3.7766,0,3.7087,3.715,3.7373,3.7397,3.7436,3.7536,3.7605,3.7683,3.7722,3.771,3.7757,3.77,3.7825,3.7689,3.786,3.7746,3.779,3.7795,3.7804,3.7811,3.766,3.7893,3.8288,3.8327,3.7822,3.7817,3.7813,0,3.7345,3.7486,3.7637,3.7665,3.7698,3.777,3.7787,3.7818,3.7869,3.7929,3.7961,3.8036,3.8076,3.8135,3.8099,3.8003,3.8276,3.8137,3.8269,3.827,3.8329,3.8325,3.8735,3.8361,3.8361,3.836,3.8359,0,3.7656,3.7796,3.7754,3.7847,3.8001,3.7951,3.8104,3.811,3.8139,3.8231,3.8152,3.824,3.8188,3.8272,3.8245,3.839,3.8409,3.8403,3.8394,3.841,3.841,3.8436,3.8417,3.837,3.8368,3.8366,3.8364,0,3.7969,3.7947,3.8106,3.8125,3.8133,3.8245,3.8261,3.8347,3.8337,3.8454,3.8479,3.8462,3.8556,3.8527,3.8629,3.8611,3.8795,3.8763,3.8782,3.8774,3.8907,3.8895,3.9346,3.9403,3.8994,3.8998,3.9002,0,3.8168,3.8274,3.8305,3.8361,3.8384,3.8477,3.8528,3.8484,3.854,3.8594,3.8674,3.8762,3.883,3.8986,3.8982,3.906,3.9028,3.9181,3.9039,3.9051,3.9029,3.9022,3.9032,3.9209,3.9214,3.9217,3.922,0,3.8523,3.8507,3.8585,3.8661,3.8725,3.8782,3.8831,3.8882,3.8841,3.8909,3.9005,3.9058,3.9164,3.9252,3.9323,3.9339,3.9274,3.9266,3.93,3.9316,3.9322,3.932,3.8858,3.9255,3.9251,3.9249,3.9247,3.9246,3.8783,3.8873,3.8909,3.8999,3.9032,3.9081,3.9164,3.9164,3.9244,3.9327,3.9296,3.9407,3.9444,3.9533,3.9559,3.9644,3.9585,3.9636,3.9648,3.9661,3.9677,3.9311,3.9657,3.9656,3.9655,3.9655,3.9654,0,3.9133,3.9152,3.9236,3.9308,3.938,3.9314,3.9366,3.9429,3.9528,3.9569,3.9638,3.975,3.9836,3.984,3.992,3.9988,3.996,4.0011,4.0004,4.0009,3.9726,3.9688,4.0032,4.0032,4.0032,4.0032,4.0032,4.0032,3.9323,3.9471,3.946,3.9624,3.9642,3.9751,3.9786,3.9831,3.9863,3.9992,4.0063,4.0066,4.0092,4.0174,4.025,4.0249,4.0281,4.0344,4.0331,4.0066,4.0029,3.9993,3.9956,4.0351,4.0352,4.0606,4.0609,4.0611]}]]